Weather History for KPSM - January, 2013

Change the Weather History Date:

Friday, January 25, 2013

  Actual Average Record
Temperature  
Mean Temperature 12 °F -  
Max Temperature 20 °F 29 °F 50 °F (1996)
Min Temperature 5 °F 13 °F -5 °F (2004)
Degree Days  
Heating Degree Days 52    
Moisture  
Dew Point -9 °F    
Average Humidity 37    
Maximum Humidity 50    
Minimum Humidity 25    
Precipitation  
Precipitation 0.00 in - - ()
Sea Level Pressure  
Sea Level Pressure 30.16 in    
Wind  
Wind Speed 12 mph (West)    
Max Wind Speed 17 mph    
Max Gust Speed 28 mph    
Visibility 10 miles    
Events Snow    
Averages and records for this station are not official NWS values.
T = Trace of Precipitation, MM = Missing Value Source: NWS Daily Summary

Daily Weather History Graph

Daily Weather History Graph

Search for Another Location

Airport or City:

Trip Planner

Search our weather history database for the weather conditions in past years. The results will help you decide how hot, cold, wet, or windy it might be!

Date:

Astronomy

Jan. 25, 2013 Rise Set
Actual Time 7:05 AM EST 4:46 PM EST
Civil Twilight 6:34 AM EST 5:17 PM EST
Nautical Twilight 5:59 AM EST 5:51 PM EST
Astronomical Twilight 5:26 AM EST 6:25 PM EST
Moon 3:41 PM EST (1/25) 5:42 AM EST (1/25)
Length of Visible Light 10h 43m
Length of Day
9h 41m
Waxing Gibbous, 98% of the Moon is Illuminated
Jan 25
Waxing Gibbous
Jan 26
Full
Feb 3
Last Quarter
Feb 10
New
Feb 17
First Quarter

Hourly Weather History & Observations

Time (EST) Temp. Windchill Dew Point Humidity Pressure Visibility Wind Dir Wind Speed Gust Speed Precip Events Conditions
12:55 AM 6.6 °F -10.9 °F -10.8 °F 45% 30.17 in 10.0 mi WNW 15.0 mph 27.6 mph N/A   Clear
1:55 AM 6.8 °F -9.3 °F -10.5 °F 45% 30.18 in 10.0 mi WNW 12.7 mph 20.7 mph N/A   Clear
2:55 AM 6.6 °F -12.1 °F -10.1 °F 46% 30.19 in 10.0 mi West 17.3 mph 21.9 mph N/A   Clear
3:55 AM 6.1 °F -10.9 °F -10.1 °F 47% 30.20 in 10.0 mi West 13.8 mph - N/A   Clear
4:55 AM 6.1 °F -9.5 °F -9.6 °F 49% 30.19 in 10.0 mi WNW 11.5 mph 17.3 mph N/A   Clear
5:55 AM 5.9 °F -10.5 °F -9.4 °F 50% 30.22 in 10.0 mi West 12.7 mph 19.6 mph N/A   Partly Cloudy
6:55 AM 6.1 °F -8.7 °F -9.9 °F 48% 30.23 in 10.0 mi West 10.4 mph - N/A   Mostly Cloudy
7:55 AM 7.9 °F -4.6 °F -10.3 °F 43% 30.24 in 10.0 mi West 8.1 mph - N/A   Mostly Cloudy
8:55 AM 9.5 °F -7.8 °F -10.3 °F 40% 30.25 in 10.0 mi WNW 16.1 mph 24.2 mph N/A   Mostly Cloudy
9:55 AM 12.0 °F -3.4 °F -9.8 °F 37% 30.26 in 10.0 mi West 13.8 mph - N/A   Mostly Cloudy
10:55 AM 13.8 °F -2.7 °F -9.6 °F 35% 30.24 in 10.0 mi West 17.3 mph 25.3 mph N/A   Mostly Cloudy
11:55 AM 17.6 °F 2.2 °F -8.5 °F 31% 30.20 in 10.0 mi West 17.3 mph - N/A   Mostly Cloudy
12:55 PM 18.9 °F 4.3 °F -9.0 °F 29% 30.18 in 10.0 mi West 16.1 mph - N/A   Mostly Cloudy
1:55 PM 20.1 °F 6.9 °F -9.2 °F 27% 30.16 in 10.0 mi West 13.8 mph - N/A   Mostly Cloudy
2:55 PM 20.8 °F 9.0 °F -10.7 °F 25% 30.14 in 10.0 mi West 11.5 mph - N/A   Mostly Cloudy
3:55 PM 19.2 °F 7.7 °F -10.3 °F 27% 30.13 in 10.0 mi West 10.4 mph - N/A   Mostly Cloudy
4:55 PM 18.3 °F 9.1 °F -9.6 °F 29% 30.14 in 10.0 mi West 6.9 mph - N/A   Mostly Cloudy
5:55 PM 17.8 °F 8.5 °F -8.3 °F 31% 30.14 in 10.0 mi West 6.9 mph - N/A   Mostly Cloudy
6:55 PM 18.0 °F 8.7 °F -8.9 °F 30% 30.12 in 10.0 mi West 6.9 mph - N/A   Mostly Cloudy
7:55 PM 17.6 °F 10.7 °F -7.6 °F 32% 30.11 in 10.0 mi WSW 4.6 mph - N/A   Overcast
8:55 PM 17.8 °F 12.5 °F -7.4 °F 32% 30.09 in 10.0 mi WSW 3.5 mph - N/A   Overcast
9:55 PM 17.8 °F 8.5 °F -8.7 °F 31% 30.08 in 10.0 mi West 6.9 mph - N/A   Overcast
10:55 PM 17.6 °F 9.3 °F -7.4 °F 33% 30.07 in 10.0 mi WNW 5.8 mph - N/A   Overcast
11:09 PM 17.6 °F 8.2 °F -5.8 °F 35% 30.07 in 10.0 mi WNW 6.9 mph - N/A Snow Light Snow
11:55 PM 16.5 °F 6.9 °F 0.9 °F 50% 30.06 in 7.0 mi WNW 6.9 mph - 0.00 in Snow Light Snow